User: anonymous   Login
Location: Unspecified
(0.0000°N, 0.0000°E)
Time: 07:50:32
(UTC+00:00)
Language:

Early Bird - Orbit

View from above orbital plane
View from above orbital plane
View from above satellite
View from above satellite

Ground track
Ground track

The orbit data is extracted from the following two-line orbital elements,

1 01317U 65028A   18112.47122917  .00000055  00000-0  00000+0 0  9998
2 01317   0.5407  20.8563 0002034 106.7666 118.6110  1.00348623 97321
Epoch (UTC): 22 April 2018 11:18:34
Eccentricity: 0.0002034
inclination: 0.5407°
perigee height: 35756 km
apogee height: 35773 km
right ascension of ascending node: 20.8563°
argument of perigee: 106.7666°
revolutions per day: 1.00348623
mean anomaly at epoch: 118.6110°
orbit number at epoch: 9732

The dashed part of the orbit path shows where the satellite is in the earth's shadow,  

DLR